Home > Weather > Theni > Past weeks

Flag for India Past Weather in Theni, Tamil Nadu, India — Yesterday and Last 2 Weeks

Now
82 °F

Broken clouds.


Feels Like: 85 °F
Forecast: 75 / 89 °F
Wind: 12 mph from Southwest

Location: Coimbatore / Peelamedu

Current Time: Jul 23, 2016 at 4:41:05 PM

Latest Report: Jul 23, 2016 at 4:30 PM


Visibility: 4 mi

Pressure: 29.74 "Hg

Humidity: 62%

Dew Point: 68 °F

Location of TheniLocation

Past Weather in Theni — Graph

°F

Theni Temperature Yesterday

Maximum temperature yesterday: 90 °F (at 1:30 PM)
Minimum temperature yesterday: 75 °F (at 12:30 AM)
Average temperature yesterday: 80 °F

High & Low Weather Summary for the Past Weeks

 TemperatureHumidityPressure
High91 °F (Jul 13, 1:30 PM)94% (Jul 9, 7:00 AM)29.95 "Hg (Jul 9, 7:00 AM)
Low72 °F (Jul 13, 5:30 AM)38% (Jul 22, 1:30 PM)29.71 "Hg (Jul 9, 3:30 PM)
Average80 °F72%29.82 "Hg
* Reported Jul 8 2:30 PM — Jul 23 3:00 PM, Theni, Weather by CustomWeather, © 2016

Note: Actual official high and low records may vary slightly from our data, if they occured in-between our weather recording intervals... More about our weather records

Advertising

Theni Weather History for the Previous 24 Hours

Scroll right to see more
 ConditionsComfort  
Time TempWeatherWind HumidityBarometerVisibility
3:00 PM
Sat, Jul 23
88 °FBroken clouds.12 mph52%29.74 "Hg4 mi
2:30 PM88 °FBroken clouds.12 mph52%29.74 "Hg4 mi
2:00 PM88 °FBroken clouds.12 mph52%29.74 "Hg4 mi
1:30 PM88 °FBroken clouds.16 mph52%29.74 "Hg4 mi
1:00 PM88 °FScattered clouds.14 mph52%29.77 "Hg5 mi
12:30 PM86 °FScattered clouds.8 mph59%29.80 "Hg5 mi
12:00 PM86 °FScattered clouds.9 mph59%29.80 "Hg5 mi
11:30 AM86 °FScattered clouds.12 mph59%29.80 "Hg5 mi
11:00 AM82 °FPartly sunny.5 mph62%29.83 "Hg4 mi
10:30 AM81 °FPartly sunny.6 mph66%29.83 "Hg4 mi
10:00 AM79 °FBroken clouds.12 mph70%29.83 "Hg4 mi
9:30 AM79 °FBroken clouds.7 mph74%29.83 "Hg3 mi
9:00 AM77 °FScattered clouds.9 mph79%29.83 "Hg3 mi
8:30 AM75 °FFog.7 mph83%29.83 "Hg2 mi
8:00 AM73 °FFog.7 mph89%29.83 "Hg2 mi
7:30 AM73 °FFog.9 mph89%29.83 "Hg2 mi
6:30 AM72 °FFog.2 mph94%29.80 "Hg3 mi
6:00 AM72 °FFog.3 mph94%29.80 "Hg3 mi
5:30 AM72 °FFog.7 mph94%29.77 "Hg3 mi
5:00 AM73 °FFog.9 mph89%29.77 "Hg3 mi
4:30 AM73 °FPassing clouds.9 mph89%29.80 "Hg4 mi
4:00 AM73 °FPassing clouds.9 mph89%29.80 "Hg4 mi
3:30 AM73 °FPassing clouds.7 mph89%29.80 "Hg4 mi
3:00 AM73 °FPassing clouds.8 mph89%29.80 "Hg4 mi
2:30 AM73 °FPassing clouds.14 mph89%29.80 "Hg4 mi
1:30 AM75 °FPassing clouds.8 mph83%29.80 "Hg4 mi
12:30 AM75 °FPassing clouds.9 mph83%29.83 "Hg4 mi
11:30 PM
Fri, Jul 22
75 °FPassing clouds.6 mph78%29.83 "Hg4 mi
11:00 PM75 °FPassing clouds.5 mph83%29.83 "Hg4 mi
10:30 PM77 °FPassing clouds.7 mph79%29.83 "Hg4 mi
10:00 PM77 °FPassing clouds.6 mph83%29.83 "Hg4 mi
9:30 PM77 °FPassing clouds.8 mph79%29.83 "Hg4 mi
9:00 PM77 °FPassing clouds.7 mph79%29.83 "Hg4 mi
8:30 PM77 °FPassing clouds.9 mph79%29.80 "Hg4 mi
8:00 PM77 °FPassing clouds.9 mph79%29.80 "Hg4 mi
7:30 PM77 °FPassing clouds.7 mph79%29.80 "Hg4 mi
7:00 PM79 °FPassing clouds.9 mph74%29.80 "Hg4 mi
6:30 PM81 °FPassing clouds.14 mph70%29.77 "Hg4 mi
6:00 PM82 °FPassing clouds.15 mph66%29.77 "Hg4 mi
5:30 PM84 °FPassing clouds.14 mph58%29.77 "Hg4 mi
5:00 PM86 °FScattered clouds.14 mph46%29.74 "Hg4 mi
4:30 PM88 °FScattered clouds.13 mph43%29.74 "Hg4 mi
4:00 PM88 °FScattered clouds.12 mph43%29.74 "Hg4 mi
Weather by CustomWeather, © 2016

See weather overviewHow to use our weather pages